AAY4007 KLAS-KMCI

Flight info

Callsign AAY4007
Flight time 2h 7m
Altitude 37000
Route NIITZ4 HOCEE KA42W DRAWL KK48C FRACA ZOURA WUTNG3
Aircraft A320/M-SDE3FGHIRWY/LB1

Departure

Time 2026-05-06 01:54
Airport Harry Reid International Airport (KLAS)

Arrival

Time 2026-05-06 04:02
Airport Kansas City International Airport (KMCI)
Time Latitude Longitude Altitude Speed Heading
2026-05-06 01:23 36.08682 -115.15371 2116 ft 0 kts 116°
2026-05-06 01:42 36.08689 -115.15389 2115 ft 4 kts 117°
2026-05-06 01:42 36.08701 -115.15418 2115 ft 4 kts 119°
2026-05-06 01:42 36.08715 -115.15447 2112 ft 4 kts 124°
2026-05-06 01:43 36.08732 -115.15473 2113 ft 4 kts 140°
2026-05-06 01:43 36.08751 -115.15485 2114 ft 3 kts 200°
2026-05-06 01:43 36.08754 -115.15484 2113 ft 0 kts 206°
2026-05-06 01:45 36.08753 -115.15485 2114 ft 1 kts 206°
2026-05-06 01:45 36.08713 -115.15509 2111 ft 9 kts 206°
2026-05-06 01:46 36.08661 -115.15541 2112 ft 8 kts 206°
2026-05-06 01:46 36.08600 -115.15578 2116 ft 10 kts 206°
2026-05-06 01:46 36.08538 -115.15601 2117 ft 9 kts 179°
2026-05-06 01:46 36.08470 -115.15570 2118 ft 15 kts 154°
2026-05-06 01:47 36.08374 -115.15515 2119 ft 15 kts 155°
2026-05-06 01:47 36.08278 -115.15460 2121 ft 15 kts 155°
2026-05-06 01:47 36.08183 -115.15406 2125 ft 14 kts 155°
2026-05-06 01:47 36.08116 -115.15332 2126 ft 13 kts 110°
2026-05-06 01:48 36.08094 -115.15207 2124 ft 16 kts 96°
2026-05-06 01:48 36.08102 -115.15048 2121 ft 21 kts 89°
2026-05-06 01:48 36.08072 -115.14912 2115 ft 16 kts 138°
2026-05-06 01:48 36.07970 -115.14846 2116 ft 17 kts 155°
2026-05-06 01:49 36.07868 -115.14784 2116 ft 17 kts 133°
2026-05-06 01:49 36.07846 -115.14622 2109 ft 22 kts 94°
2026-05-06 01:49 36.07834 -115.14439 2105 ft 22 kts 95°
2026-05-06 01:49 36.07827 -115.14235 2097 ft 26 kts 90°
2026-05-06 01:50 36.07827 -115.14045 2094 ft 16 kts 90°
2026-05-06 01:50 36.07826 -115.13901 2094 ft 18 kts 90°
2026-05-06 01:50 36.07826 -115.13728 2089 ft 22 kts 90°
2026-05-06 01:50 36.07826 -115.13524 2085 ft 25 kts 90°
2026-05-06 01:51 36.07826 -115.13330 2079 ft 28 kts 90°
2026-05-06 01:51 36.07827 -115.13121 2068 ft 23 kts 90°
2026-05-06 01:51 36.07827 -115.12906 2061 ft 26 kts 89°
2026-05-06 01:51 36.07827 -115.12689 2051 ft 24 kts 90°
2026-05-06 01:52 36.07826 -115.12468 2047 ft 27 kts 90°
2026-05-06 01:52 36.07820 -115.12264 2041 ft 18 kts 112°
2026-05-06 01:52 36.07750 -115.12149 2040 ft 11 kts 130°
2026-05-06 01:52 36.07742 -115.12138 2040 ft 0 kts 135°
2026-05-06 01:53 36.07708 -115.12118 2043 ft 12 kts 167°
2026-05-06 01:53 36.07642 -115.12147 2043 ft 10 kts 248°
2026-05-06 01:53 36.07639 -115.12222 2044 ft 10 kts 270°
2026-05-06 01:53 36.07639 -115.12557 2052 ft 75 kts 270°
2026-05-06 01:54 36.07640 -115.13462 2079 ft 133 kts 270°
2026-05-06 01:54 36.07639 -115.14803 2120 ft 177 kts 270°
2026-05-06 01:54 36.07659 -115.16380 2635 ft 184 kts 270°
2026-05-06 01:54 36.07674 -115.17962 3429 ft 182 kts 269°
2026-05-06 01:55 36.07655 -115.19510 4107 ft 188 kts 268°
2026-05-06 01:55 36.07611 -115.21229 4359 ft 214 kts 264°
2026-05-06 01:55 36.07390 -115.23143 4796 ft 235 kts 260°
2026-05-06 01:55 36.06886 -115.25083 5542 ft 242 kts 237°
2026-05-06 01:56 36.05627 -115.26518 6162 ft 260 kts 207°
2026-05-06 01:56 36.03887 -115.27335 6782 ft 273 kts 201°
2026-05-06 01:56 36.02067 -115.28101 7552 ft 280 kts 196°
2026-05-06 01:56 36.00096 -115.28352 7950 ft 289 kts 176°
2026-05-06 01:57 35.98142 -115.27745 8166 ft 295 kts 154°
2026-05-06 01:57 35.96452 -115.26315 9066 ft 296 kts 137°
2026-05-06 01:57 35.94906 -115.24612 9934 ft 299 kts 137°
2026-05-06 01:57 35.93323 -115.22877 10488 ft 315 kts 136°
2026-05-06 01:58 35.91717 -115.20899 10750 ft 337 kts 128°
2026-05-06 01:58 35.90288 -115.18491 10957 ft 359 kts 119°
2026-05-06 01:58 35.88976 -115.15766 11192 ft 378 kts 118°
2026-05-06 01:58 35.87815 -115.12833 11778 ft 382 kts 108°
2026-05-06 01:59 35.87098 -115.09675 12461 ft 383 kts 98°
2026-05-06 01:59 35.86860 -115.06445 13148 ft 384 kts 87°
2026-05-06 01:59 35.87015 -115.03154 13818 ft 387 kts 83°
2026-05-06 01:59 35.87207 -114.99838 14403 ft 390 kts 84°
2026-05-06 02:00 35.87394 -114.96488 14980 ft 393 kts 84°
2026-05-06 02:00 35.87579 -114.93112 15571 ft 396 kts 84°
2026-05-06 02:00 35.87763 -114.89714 16150 ft 399 kts 84°
2026-05-06 02:00 35.87947 -114.86289 16725 ft 402 kts 84°
2026-05-06 02:01 35.88131 -114.82847 17275 ft 405 kts 84°
2026-05-06 02:01 35.88316 -114.79368 17825 ft 408 kts 84°
2026-05-06 02:01 35.88501 -114.75866 18341 ft 411 kts 84°
2026-05-06 02:01 35.88689 -114.72342 18817 ft 413 kts 84°
2026-05-06 02:02 35.88876 -114.68807 19317 ft 415 kts 84°
2026-05-06 02:02 35.89062 -114.65255 19810 ft 416 kts 84°
2026-05-06 02:02 35.89246 -114.61690 20282 ft 417 kts 85°
2026-05-06 02:02 35.89429 -114.58112 20752 ft 419 kts 85°
2026-05-06 02:03 35.89614 -114.54517 21212 ft 420 kts 84°
2026-05-06 02:03 35.89769 -114.50911 21664 ft 422 kts 86°
2026-05-06 02:03 35.89824 -114.47291 22099 ft 424 kts 88°
2026-05-06 02:03 35.89802 -114.43642 22528 ft 426 kts 89°
2026-05-06 02:04 35.89740 -114.39982 22968 ft 428 kts 89°
2026-05-06 02:04 35.89670 -114.36312 23394 ft 430 kts 89°
2026-05-06 02:04 35.89611 -114.32616 23721 ft 432 kts 89°
2026-05-06 02:04 35.89566 -114.28907 24087 ft 433 kts 88°
2026-05-06 02:05 35.89534 -114.25191 24448 ft 434 kts 88°
2026-05-06 02:05 35.89513 -114.21471 24813 ft 434 kts 88°
2026-05-06 02:05 35.89495 -114.17747 25174 ft 434 kts 88°
2026-05-06 02:05 35.89476 -114.14019 25524 ft 435 kts 87°
2026-05-06 02:06 35.89453 -114.10286 25851 ft 436 kts 87°
2026-05-06 02:06 35.89425 -114.06543 26186 ft 436 kts 87°
2026-05-06 02:06 35.89395 -114.02809 26587 ft 435 kts 87°
2026-05-06 02:06 35.89364 -113.99088 27056 ft 433 kts 87°
2026-05-06 02:07 35.89331 -113.95434 27529 ft 430 kts 87°
2026-05-06 02:07 35.89294 -113.91721 28041 ft 427 kts 86°
2026-05-06 02:07 35.89260 -113.88077 28566 ft 423 kts 86°
2026-05-06 02:07 35.89225 -113.84460 29122 ft 420 kts 86°
2026-05-06 02:08 35.89190 -113.80881 29634 ft 417 kts 86°
2026-05-06 02:08 35.89154 -113.77368 30106 ft 414 kts 86°
2026-05-06 02:08 35.89118 -113.73823 30455 ft 414 kts 86°
2026-05-06 02:08 35.89082 -113.70255 30650 ft 418 kts 87°
2026-05-06 02:09 35.89044 -113.66653 30856 ft 421 kts 87°
2026-05-06 02:09 35.89003 -113.63044 31002 ft 423 kts 87°
2026-05-06 02:09 35.88957 -113.59400 31233 ft 425 kts 88°
2026-05-06 02:09 35.88909 -113.55761 31521 ft 426 kts 87°
2026-05-06 02:10 35.89088 -113.52111 31720 ft 426 kts 79°
2026-05-06 02:10 35.89627 -113.48515 31945 ft 427 kts 77°
2026-05-06 02:10 35.90193 -113.44913 32166 ft 429 kts 77°
2026-05-06 02:10 35.90759 -113.41283 32386 ft 433 kts 77°
2026-05-06 02:11 35.91327 -113.37617 32511 ft 438 kts 78°
2026-05-06 02:11 35.91897 -113.33917 32739 ft 440 kts 78°
2026-05-06 02:11 35.92467 -113.30197 32969 ft 443 kts 78°
2026-05-06 02:11 35.93037 -113.26455 33212 ft 445 kts 78°
2026-05-06 02:12 35.93609 -113.22695 33468 ft 447 kts 78°
2026-05-06 02:12 35.94183 -113.18922 33722 ft 449 kts 78°
2026-05-06 02:12 35.94760 -113.15131 33980 ft 450 kts 78°
2026-05-06 02:12 35.95337 -113.11333 34180 ft 452 kts 78°
2026-05-06 02:13 35.95919 -113.07510 34350 ft 455 kts 78°
2026-05-06 02:13 35.96504 -113.03655 34481 ft 459 kts 79°
2026-05-06 02:13 35.97090 -112.99774 34659 ft 461 kts 79°
2026-05-06 02:13 35.97676 -112.95876 34869 ft 462 kts 79°
2026-05-06 02:14 35.98261 -112.91964 35047 ft 464 kts 79°
2026-05-06 02:14 35.98850 -112.88037 35244 ft 466 kts 79°
2026-05-06 02:14 35.99442 -112.84099 35420 ft 468 kts 79°
2026-05-06 02:14 36.00039 -112.80144 35623 ft 469 kts 79°
2026-05-06 02:15 36.00635 -112.76174 35783 ft 471 kts 80°
2026-05-06 02:15 36.01227 -112.72192 35945 ft 473 kts 80°
2026-05-06 02:15 36.01818 -112.68198 36137 ft 473 kts 80°
2026-05-06 02:15 36.02407 -112.64194 36336 ft 474 kts 80°
2026-05-06 02:16 36.02995 -112.60184 36547 ft 474 kts 80°
2026-05-06 02:16 36.03582 -112.56167 36742 ft 475 kts 80°
2026-05-06 02:16 36.04170 -112.52152 36884 ft 476 kts 80°
2026-05-06 02:16 36.04766 -112.48106 36951 ft 479 kts 80°
2026-05-06 02:17 36.05957 -112.39976 36968 ft 482 kts 81°
2026-05-06 02:17 36.07146 -112.31802 36989 ft 483 kts 81°
2026-05-06 02:18 36.08325 -112.23624 37002 ft 484 kts 81°
2026-05-06 02:18 36.09503 -112.15438 37011 ft 484 kts 81°
2026-05-06 02:19 36.10672 -112.07240 36983 ft 485 kts 81°
2026-05-06 02:19 36.11837 -111.99023 36950 ft 486 kts 81°
2026-05-06 02:20 36.13577 -111.86725 36888 ft 486 kts 81°
2026-05-06 02:21 36.14744 -111.78478 36827 ft 487 kts 81°
2026-05-06 02:21 36.15896 -111.70199 36807 ft 489 kts 82°
2026-05-06 02:22 36.17049 -111.61876 36812 ft 492 kts 82°
2026-05-06 02:22 36.18210 -111.53519 36792 ft 493 kts 82°
2026-05-06 02:23 36.19388 -111.45139 36799 ft 494 kts 82°
2026-05-06 02:23 36.20571 -111.36750 36802 ft 495 kts 82°
2026-05-06 02:24 36.21754 -111.28340 36806 ft 496 kts 82°
2026-05-06 02:24 36.22921 -111.19925 36806 ft 496 kts 82°
2026-05-06 02:25 36.24086 -111.11496 36802 ft 497 kts 82°
2026-05-06 02:25 36.25240 -111.03055 36790 ft 498 kts 82°
2026-05-06 02:26 36.26386 -110.94645 36801 ft 498 kts 82°
2026-05-06 02:26 36.27549 -110.86121 36801 ft 498 kts 82°
2026-05-06 02:27 36.28686 -110.77704 36794 ft 499 kts 83°
2026-05-06 02:27 36.29824 -110.69210 36796 ft 501 kts 83°
2026-05-06 02:28 36.30961 -110.60684 36798 ft 502 kts 83°
2026-05-06 02:28 36.32090 -110.52136 36816 ft 503 kts 83°
2026-05-06 02:29 36.33224 -110.43571 36816 ft 504 kts 83°
2026-05-06 02:29 36.34362 -110.34988 36820 ft 505 kts 83°
2026-05-06 02:30 36.35489 -110.26391 36822 ft 506 kts 83°
2026-05-06 02:30 36.36610 -110.17761 36819 ft 507 kts 83°
2026-05-06 02:31 36.37713 -110.09132 36810 ft 507 kts 83°
2026-05-06 02:31 36.38817 -110.00472 36796 ft 509 kts 83°
2026-05-06 02:32 36.39928 -109.91792 36787 ft 509 kts 83°
2026-05-06 02:32 36.41033 -109.83104 36795 ft 510 kts 83°
2026-05-06 02:33 36.42132 -109.74403 36794 ft 511 kts 84°
2026-05-06 02:33 36.42496 -109.71514 36792 ft 511 kts 84°
2026-05-06 02:34 36.44309 -109.56997 36793 ft 513 kts 84°
2026-05-06 02:34 36.45395 -109.48236 36808 ft 513 kts 84°
2026-05-06 02:35 36.46477 -109.39460 36796 ft 515 kts 84°
2026-05-06 02:35 36.47547 -109.30652 36803 ft 516 kts 84°
2026-05-06 02:36 36.48613 -109.21824 36810 ft 518 kts 84°
2026-05-06 02:36 36.49499 -109.14465 36810 ft 517 kts 84°
2026-05-06 02:37 36.50565 -109.05617 36781 ft 519 kts 84°
2026-05-06 02:37 36.51627 -108.96734 36765 ft 520 kts 84°
2026-05-06 02:38 36.52684 -108.87829 36777 ft 521 kts 84°
2026-05-06 02:38 36.53735 -108.78900 36781 ft 522 kts 84°
2026-05-06 02:39 36.54785 -108.69944 36775 ft 524 kts 85°
2026-05-06 02:39 36.55826 -108.60974 36774 ft 525 kts 85°
2026-05-06 02:40 36.56862 -108.51975 36826 ft 526 kts 85°
2026-05-06 02:40 36.57888 -108.42972 36864 ft 526 kts 85°
2026-05-06 02:41 36.58918 -108.33948 36876 ft 528 kts 85°
2026-05-06 02:41 36.59943 -108.24892 36895 ft 529 kts 85°
2026-05-06 02:42 36.60963 -108.15817 36886 ft 531 kts 85°
2026-05-06 02:42 36.61971 -108.06772 36882 ft 532 kts 85°
2026-05-06 02:43 36.62978 -107.97645 36870 ft 532 kts 85°
2026-05-06 02:43 36.63979 -107.88524 36854 ft 532 kts 86°
2026-05-06 02:44 36.64977 -107.79391 36833 ft 532 kts 86°
2026-05-06 02:44 36.65971 -107.70247 36819 ft 532 kts 86°
2026-05-06 02:45 36.66962 -107.61097 36807 ft 534 kts 86°
2026-05-06 02:45 36.67944 -107.51921 36809 ft 535 kts 86°
2026-05-06 02:46 36.68902 -107.42717 36821 ft 536 kts 86°
2026-05-06 02:46 36.69860 -107.33501 36806 ft 537 kts 86°
2026-05-06 02:47 36.70832 -107.24260 36818 ft 539 kts 87°
2026-05-06 02:47 36.71791 -107.15035 36842 ft 541 kts 87°
2026-05-06 02:48 36.72754 -107.05722 36852 ft 542 kts 87°
2026-05-06 02:48 36.73699 -106.96404 36858 ft 543 kts 87°
2026-05-06 02:49 36.74639 -106.87055 36870 ft 544 kts 87°
2026-05-06 02:49 36.75574 -106.77687 36874 ft 545 kts 87°
2026-05-06 02:50 36.76516 -106.68310 36843 ft 546 kts 88°
2026-05-06 02:50 36.77444 -106.58858 36918 ft 551 kts 88°
2026-05-06 02:51 36.78369 -106.49344 36927 ft 552 kts 88°
2026-05-06 02:51 36.79297 -106.39842 36929 ft 552 kts 88°
2026-05-06 02:52 36.80220 -106.30328 36896 ft 552 kts 88°
2026-05-06 02:52 36.81126 -106.20874 36899 ft 552 kts 88°
2026-05-06 02:53 36.82029 -106.11352 36892 ft 552 kts 88°
2026-05-06 02:53 36.82913 -106.01830 36876 ft 552 kts 89°
2026-05-06 02:54 36.83794 -105.92296 36848 ft 554 kts 88°
2026-05-06 02:54 36.84677 -105.82731 36836 ft 556 kts 88°
2026-05-06 02:55 36.85556 -105.73129 36834 ft 557 kts 89°
2026-05-06 02:55 36.86426 -105.63516 36843 ft 558 kts 89°
2026-05-06 02:56 36.87287 -105.53872 36840 ft 559 kts 89°
2026-05-06 02:56 36.88148 -105.44209 36828 ft 560 kts 89°
2026-05-06 02:57 36.88998 -105.34536 36830 ft 562 kts 89°
2026-05-06 02:57 36.89843 -105.24838 36837 ft 562 kts 89°
2026-05-06 02:58 36.90685 -105.15106 36817 ft 564 kts 89°
2026-05-06 02:58 36.91524 -105.05342 36810 ft 565 kts 89°
2026-05-06 02:59 36.92347 -104.95559 36810 ft 566 kts 89°
2026-05-06 02:59 36.93171 -104.85772 36813 ft 567 kts 89°
2026-05-06 03:00 36.93992 -104.75951 36843 ft 568 kts 89°
2026-05-06 03:00 36.94795 -104.66107 36869 ft 570 kts 89°
2026-05-06 03:01 36.95589 -104.56246 36888 ft 570 kts 89°
2026-05-06 03:01 36.96380 -104.46443 36891 ft 571 kts 89°
2026-05-06 03:02 36.97175 -104.36570 36886 ft 571 kts 89°
2026-05-06 03:02 36.97953 -104.26694 36884 ft 571 kts 89°
2026-05-06 03:03 36.98720 -104.16808 36847 ft 571 kts 90°
2026-05-06 03:03 36.99483 -104.06917 36840 ft 571 kts 90°
2026-05-06 03:04 37.00637 -103.97057 36836 ft 577 kts 78°
2026-05-06 03:04 37.02719 -103.87347 36858 ft 578 kts 78°
2026-05-06 03:05 37.04797 -103.77631 36844 ft 578 kts 78°
2026-05-06 03:05 37.06863 -103.67911 36865 ft 578 kts 78°
2026-05-06 03:06 37.08918 -103.58183 36888 ft 578 kts 78°
2026-05-06 03:06 37.10964 -103.48448 36898 ft 578 kts 78°
2026-05-06 03:07 37.12988 -103.38773 36901 ft 578 kts 78°
2026-05-06 03:07 37.15022 -103.29031 36910 ft 578 kts 78°
2026-05-06 03:08 37.17062 -103.19283 36918 ft 578 kts 78°
2026-05-06 03:08 37.19085 -103.09525 36903 ft 579 kts 78°
2026-05-06 03:09 37.21090 -102.99733 36909 ft 580 kts 78°
2026-05-06 03:09 37.23093 -102.89924 36899 ft 581 kts 78°
2026-05-06 03:10 37.25101 -102.80099 36914 ft 581 kts 78°
2026-05-06 03:10 37.27104 -102.70248 36933 ft 584 kts 78°
2026-05-06 03:11 37.29098 -102.60384 36920 ft 584 kts 78°
2026-05-06 03:11 37.31097 -102.50491 36921 ft 584 kts 78°
2026-05-06 03:12 37.33080 -102.40599 36928 ft 585 kts 78°
2026-05-06 03:12 37.35061 -102.30681 36938 ft 586 kts 78°
2026-05-06 03:13 37.37032 -102.20740 36950 ft 586 kts 78°
2026-05-06 03:13 37.38997 -102.10782 36969 ft 587 kts 78°
2026-05-06 03:14 37.40946 -102.00877 36987 ft 588 kts 78°
2026-05-06 03:14 37.42901 -101.90887 36999 ft 589 kts 78°
2026-05-06 03:15 37.44862 -101.80811 37015 ft 589 kts 78°
2026-05-06 03:15 37.46785 -101.70865 37025 ft 590 kts 78°
2026-05-06 03:16 37.48709 -101.60822 37025 ft 590 kts 79°
2026-05-06 03:16 37.50428 -101.50725 37029 ft 590 kts 82°
2026-05-06 03:17 37.51931 -101.40573 37035 ft 590 kts 83°
2026-05-06 03:17 37.53435 -101.30418 37036 ft 590 kts 82°
2026-05-06 03:18 37.55012 -101.20267 37008 ft 591 kts 81°
2026-05-06 03:18 37.56613 -101.10108 37006 ft 591 kts 82°
2026-05-06 03:19 37.58189 -100.99935 37014 ft 591 kts 82°
2026-05-06 03:19 37.59737 -100.89756 37015 ft 591 kts 82°
2026-05-06 03:20 37.62042 -100.74494 37021 ft 591 kts 82°
2026-05-06 03:20 37.63564 -100.64300 37022 ft 591 kts 82°
2026-05-06 03:21 37.65069 -100.54178 37003 ft 591 kts 82°
2026-05-06 03:21 37.66585 -100.43987 37012 ft 592 kts 82°
2026-05-06 03:22 37.68100 -100.33769 37022 ft 592 kts 82°
2026-05-06 03:22 37.69603 -100.23565 37035 ft 592 kts 82°
2026-05-06 03:23 37.71092 -100.13339 37024 ft 592 kts 82°
2026-05-06 03:23 37.72570 -100.03103 37032 ft 593 kts 82°
2026-05-06 03:24 37.74040 -99.92847 37052 ft 593 kts 83°
2026-05-06 03:24 37.75503 -99.82608 37048 ft 593 kts 82°
2026-05-06 03:25 37.76961 -99.72357 37029 ft 593 kts 82°
2026-05-06 03:25 37.78404 -99.62098 37044 ft 593 kts 83°
2026-05-06 03:26 37.79841 -99.51828 37041 ft 593 kts 83°
2026-05-06 03:26 37.81277 -99.41546 37029 ft 594 kts 82°
2026-05-06 03:27 37.82700 -99.31252 37064 ft 593 kts 82°
2026-05-06 03:27 37.84101 -99.21045 37060 ft 593 kts 83°
2026-05-06 03:28 37.85505 -99.10770 37066 ft 593 kts 83°
2026-05-06 03:28 37.86896 -99.00468 37073 ft 593 kts 83°
2026-05-06 03:29 37.88274 -98.90194 37070 ft 593 kts 83°
2026-05-06 03:29 37.89651 -98.79891 37070 ft 593 kts 83°
2026-05-06 03:30 37.91020 -98.69601 37048 ft 593 kts 83°
2026-05-06 03:30 37.92154 -98.61031 37044 ft 594 kts 83°
2026-05-06 03:31 37.93506 -98.50715 37042 ft 594 kts 83°
2026-05-06 03:31 37.94851 -98.40393 37032 ft 594 kts 83°
2026-05-06 03:32 37.96181 -98.30059 37018 ft 594 kts 83°
2026-05-06 03:32 37.97508 -98.19718 37024 ft 595 kts 83°
2026-05-06 03:33 37.98825 -98.09367 37032 ft 595 kts 83°
2026-05-06 03:33 38.00128 -97.99002 37044 ft 596 kts 83°
2026-05-06 03:34 38.01624 -97.88661 37043 ft 597 kts 80°
2026-05-06 03:34 38.03317 -97.78365 37050 ft 597 kts 79°
2026-05-06 03:35 38.04992 -97.68045 37047 ft 596 kts 80°
2026-05-06 03:35 38.06565 -97.57711 37038 ft 596 kts 81°
2026-05-06 03:36 38.08092 -97.47378 37047 ft 596 kts 81°
2026-05-06 03:36 38.09640 -97.37029 36736 ft 596 kts 81°
2026-05-06 03:37 38.10424 -97.31860 36485 ft 596 kts 81°
2026-05-06 03:37 38.11206 -97.26694 36236 ft 596 kts 81°
2026-05-06 03:37 38.11983 -97.21523 35984 ft 596 kts 81°
2026-05-06 03:37 38.12744 -97.16424 35747 ft 596 kts 81°
2026-05-06 03:38 38.13518 -97.11192 35506 ft 595 kts 81°
2026-05-06 03:38 38.14269 -97.06085 35263 ft 595 kts 81°
2026-05-06 03:38 38.15023 -97.00918 35024 ft 595 kts 81°
2026-05-06 03:38 38.15773 -96.95755 34783 ft 595 kts 81°
2026-05-06 03:39 38.16523 -96.90576 34546 ft 595 kts 81°
2026-05-06 03:39 38.17275 -96.85408 34311 ft 595 kts 81°
2026-05-06 03:39 38.18029 -96.80246 34074 ft 595 kts 80°
2026-05-06 03:39 38.18818 -96.75088 33825 ft 594 kts 79°
2026-05-06 03:40 38.19668 -96.69954 33558 ft 591 kts 78°
2026-05-06 03:40 38.20547 -96.64908 33282 ft 579 kts 77°
2026-05-06 03:40 38.21426 -96.59967 33018 ft 568 kts 77°
2026-05-06 03:40 38.22285 -96.55118 32757 ft 557 kts 78°
2026-05-06 03:41 38.23107 -96.50351 32496 ft 547 kts 78°
2026-05-06 03:41 38.23897 -96.45641 32234 ft 542 kts 78°
2026-05-06 03:41 38.24661 -96.40965 31980 ft 538 kts 78°
2026-05-06 03:41 38.25418 -96.36316 31730 ft 535 kts 78°
2026-05-06 03:42 38.26172 -96.31689 31495 ft 533 kts 78°
2026-05-06 03:42 38.26925 -96.27074 31251 ft 531 kts 78°
2026-05-06 03:42 38.27748 -96.22503 31008 ft 529 kts 72°
2026-05-06 03:42 38.28922 -96.18095 30763 ft 524 kts 64°
2026-05-06 03:43 38.30463 -96.13921 30533 ft 518 kts 56°
2026-05-06 03:43 38.32324 -96.10039 30303 ft 510 kts 48°
2026-05-06 03:43 38.34462 -96.06488 30064 ft 501 kts 40°
2026-05-06 03:43 38.36759 -96.03264 29708 ft 496 kts 38°
2026-05-06 03:44 38.39108 -96.00018 28795 ft 499 kts 39°
2026-05-06 03:44 38.41418 -95.96809 28168 ft 485 kts 40°
2026-05-06 03:44 38.43672 -95.93664 27465 ft 475 kts 40°
2026-05-06 03:44 38.45881 -95.90580 26766 ft 466 kts 41°
2026-05-06 03:45 38.48047 -95.87556 26073 ft 457 kts 41°
2026-05-06 03:45 38.50172 -95.84593 25416 ft 448 kts 42°
2026-05-06 03:45 38.52258 -95.81692 24819 ft 439 kts 42°
2026-05-06 03:45 38.54298 -95.78858 24220 ft 428 kts 43°
2026-05-06 03:46 38.56292 -95.76087 23615 ft 419 kts 44°
2026-05-06 03:46 38.58249 -95.73363 22885 ft 411 kts 44°
2026-05-06 03:46 38.60164 -95.70696 22131 ft 405 kts 44°
2026-05-06 03:46 38.62057 -95.68050 21334 ft 402 kts 44°
2026-05-06 03:47 38.63931 -95.65421 20594 ft 398 kts 44°
2026-05-06 03:47 38.65781 -95.62820 19891 ft 393 kts 44°
2026-05-06 03:47 38.67609 -95.60250 19208 ft 388 kts 45°
2026-05-06 03:47 38.69413 -95.57715 18564 ft 383 kts 44°
2026-05-06 03:48 38.71203 -95.55203 17869 ft 379 kts 45°
2026-05-06 03:48 38.72966 -95.52726 17183 ft 374 kts 44°
2026-05-06 03:48 38.74705 -95.50283 16524 ft 369 kts 44°
2026-05-06 03:48 38.76416 -95.47874 15918 ft 363 kts 44°
2026-05-06 03:49 38.78102 -95.45494 15310 ft 358 kts 44°
2026-05-06 03:49 38.79739 -95.43180 14724 ft 353 kts 44°
2026-05-06 03:49 38.81376 -95.40870 14147 ft 347 kts 44°
2026-05-06 03:49 38.82993 -95.38596 13541 ft 343 kts 44°
2026-05-06 03:50 38.84589 -95.36359 12907 ft 337 kts 44°
2026-05-06 03:50 38.86158 -95.34155 12288 ft 332 kts 44°
2026-05-06 03:50 38.87699 -95.31984 11673 ft 327 kts 44°
2026-05-06 03:50 38.89222 -95.29842 11048 ft 323 kts 44°
2026-05-06 03:51 38.90721 -95.27733 10453 ft 317 kts 44°
2026-05-06 03:51 38.92192 -95.25653 9853 ft 312 kts 44°
2026-05-06 03:51 38.93629 -95.23611 9284 ft 304 kts 44°
2026-05-06 03:51 38.95025 -95.21624 8841 ft 293 kts 44°
2026-05-06 03:52 38.96380 -95.19694 8711 ft 291 kts 44°
2026-05-06 03:52 38.97702 -95.17735 8585 ft 290 kts 50°
2026-05-06 03:52 38.98706 -95.15486 8344 ft 291 kts 64°
2026-05-06 03:52 38.99399 -95.13055 8088 ft 288 kts 67°
2026-05-06 03:53 39.00069 -95.10649 7821 ft 284 kts 67°
2026-05-06 03:53 39.00732 -95.08272 7553 ft 280 kts 67°
2026-05-06 03:53 39.01386 -95.05928 7287 ft 277 kts 67°
2026-05-06 03:53 39.02031 -95.03615 7041 ft 273 kts 67°
2026-05-06 03:54 39.02671 -95.01331 6783 ft 270 kts 67°
2026-05-06 03:54 39.03303 -94.99073 6535 ft 267 kts 67°
2026-05-06 03:54 39.03920 -94.96869 6281 ft 264 kts 67°
2026-05-06 03:54 39.04540 -94.94655 6032 ft 262 kts 66°
2026-05-06 03:55 39.05157 -94.92444 5772 ft 262 kts 66°
2026-05-06 03:55 39.05769 -94.90233 5527 ft 262 kts 67°
2026-05-06 03:55 39.06369 -94.88055 5399 ft 252 kts 67°
2026-05-06 03:55 39.06933 -94.85989 5299 ft 238 kts 66°
2026-05-06 03:56 39.07472 -94.84027 5194 ft 228 kts 66°
2026-05-06 03:56 39.07990 -94.82146 5094 ft 218 kts 66°
2026-05-06 03:56 39.08637 -94.80461 5004 ft 204 kts 50°
2026-05-06 03:56 39.09597 -94.79167 4797 ft 197 kts 36°
2026-05-06 03:57 39.10628 -94.78073 4560 ft 187 kts 36°
2026-05-06 03:57 39.11607 -94.77022 4329 ft 179 kts 36°
2026-05-06 03:57 39.12549 -94.76013 4136 ft 173 kts 36°
2026-05-06 03:57 39.13547 -94.75238 3956 ft 163 kts 18°
2026-05-06 03:58 39.14599 -94.74897 3779 ft 151 kts 12°
2026-05-06 03:58 39.15587 -94.74606 3582 ft 139 kts 11°
2026-05-06 03:58 39.16506 -94.74335 3410 ft 133 kts 11°
2026-05-06 03:58 39.17405 -94.74076 3237 ft 131 kts 11°
2026-05-06 03:59 39.18292 -94.73818 3076 ft 131 kts 11°
2026-05-06 03:59 39.19177 -94.73549 2888 ft 131 kts 12°
2026-05-06 03:59 39.20059 -94.73283 2648 ft 130 kts 12°
2026-05-06 03:59 39.20937 -94.73018 2439 ft 129 kts 11°
2026-05-06 04:00 39.21811 -94.72750 2281 ft 129 kts 12°
2026-05-06 04:00 39.22688 -94.72499 2103 ft 129 kts 11°
2026-05-06 04:00 39.23565 -94.72244 1962 ft 130 kts 11°
2026-05-06 04:00 39.24449 -94.71975 1785 ft 131 kts 12°
2026-05-06 04:01 39.25338 -94.71695 1605 ft 133 kts 11°
2026-05-06 04:01 39.26227 -94.71446 1450 ft 133 kts 10°
2026-05-06 04:01 39.27130 -94.71195 1251 ft 132 kts 12°
2026-05-06 04:01 39.28027 -94.70920 1099 ft 132 kts 10°
2026-05-06 04:02 39.28912 -94.70673 1018 ft 122 kts 13°
2026-05-06 04:02 39.29588 -94.70474 1014 ft 75 kts 12°
2026-05-06 04:02 39.29919 -94.70382 1015 ft 26 kts 10°
2026-05-06 04:02 39.30068 -94.70415 1014 ft 21 kts 333°
2026-05-06 04:03 39.30134 -94.70522 1015 ft 16 kts 278°
2026-05-06 04:03 39.30055 -94.70596 1015 ft 15 kts 192°
2026-05-06 04:03 39.29952 -94.70627 1015 ft 18 kts 193°
2026-05-06 04:03 39.29820 -94.70668 1015 ft 20 kts 192°
2026-05-06 04:04 39.29673 -94.70710 1014 ft 23 kts 193°
2026-05-06 04:04 39.29510 -94.70759 1014 ft 25 kts 193°
2026-05-06 04:04 39.29368 -94.70800 1014 ft 21 kts 193°
2026-05-06 04:04 39.29226 -94.70843 1014 ft 15 kts 191°
2026-05-06 04:05 39.29157 -94.70915 1014 ft 14 kts 263°
2026-05-06 04:05 39.29164 -94.71050 1014 ft 16 kts 276°
2026-05-06 04:05 39.29168 -94.71097 1014 ft 17 kts 276°
2026-05-06 04:05 39.29183 -94.71257 1014 ft 19 kts 277°
2026-05-06 04:06 39.29196 -94.71439 1015 ft 21 kts 274°
2026-05-06 04:06 39.29212 -94.71641 1015 ft 24 kts 276°
2026-05-06 04:06 39.29230 -94.71845 1015 ft 23 kts 277°
2026-05-06 04:06 39.29254 -94.72041 1015 ft 19 kts 297°
2026-05-06 04:07 39.29360 -94.72159 1015 ft 21 kts 324°
2026-05-06 04:07 39.29468 -94.72283 1014 ft 20 kts 338°
2026-05-06 04:07 39.29598 -94.72238 1014 ft 21 kts 40°
2026-05-06 04:07 39.29672 -94.72157 1014 ft 9 kts 36°
2026-05-06 04:08 39.29714 -94.72112 1014 ft 7 kts 61°
2026-05-06 04:08 39.29713 -94.72068 1014 ft 2 kts 103°
2026-05-06 04:08 39.29711 -94.72056 1014 ft 0 kts 102°